Probability
0 0 0 0 0 0 0 0 0 0 0 0 0 0 0 0 0 0 0 0 0 0 0 0 0 0 0 0 0 0 0 0 0 0 0 0 0 0 0 0 0 0 0 0
0 0 0 0 0 0 0 0 0 0 0 0 0 0 0 0 0 0 0 0 0 0 0 0 0 0 0 0 0 0 0 0 0 0 0 0 0 0 0 0 0 0 0 0
0 0 0 0 0 0 0 0 0 0 0 0 0 0 0 0 0 0 0 0 0 0 0 0 0 0 0 0 0 0 0 0 0 0 0 0 0 0 0 0 0 0 0 0
0 0 0 0 0 0 0 0 0 0 0 0 0 0 0 0 0 0 0 0 0 0 0 0 0 0 0 0 0 0 0 0 0 0 0 0 0 0 0 0 0 0 0 0
0 0 0 0 0 0 0 0 0 0 0 0 0 0 0 0 0 0 0 0 0 0 0 0 0 0 0 0 0 0 0 0 0 0 0 0 0 0 0 0 0 0 0 0
0 0 0 0 0 0 0 0 0 0 0 0 0 0 0 0 0 0 0 0 0 0 0 0 0 0 0 0 0 0 0 0 0 0 0 0 0 0 0 0 0 0 0 0
0 0 0 0 0 0 0 0 0 0 0 0 0 0 0 0 0 0 0 0 0 0 0 0 0 0 0 0 0 0 0 0 0 0 0 0 0 0 0 0 0 0 0 0
0 0 0 0 0 0 0 0 0 0 0 0 0 0 0 0 0 0 0 0 0 0 0 0 0 0 0 0 0 0 0 0 0 0 0 0 0 0 0 0 0 0 0 0
0 0 0 0 0 0 0 0 0 0 0 0 0 0 0 0 0 0 0 0 0 0 0 0 0 0 0 0 0 0 0 0 0 0 0 0 0 0 0 0 0 0 0 0
0 0 0 0 0 0 0 0 0 0 0 0 0 0 0 0 0 0 0 0 0 0 0 0 0 0 0 0 0 0 0 0 0 0 0 0 0 0 0 0 0 0 0 0
0 0 0 0 0 0 0 0 0 0 0 0 0 0 0 0 0 0 0 0 0 0 0 0 0 0 0 0 0 0 0 0 0 0 0 0 0 0 0 0 0 0 0 0
0 0 0 0 0 0 0 0 0 0 0 0 0 0 0 0 0 0 0 0 0 0 0 0 0 0 0 0 0 0 0 0 0 0 0 0 0 0 0 0 0 0 0 0
0 0 0 0 0 0 0 0 0 0 0 0 0 0 0 0 0 0 0 0 0 0 0 0 0 0 0 0 0 0 0 0 0 0 0 0 0 0 0 0 0 0 0 0
0 0 0 0 0 0 0 0 0 0 0 0 0 0 0 0 0 0 0 0 0 0 0 0 0 0 0 0 0 0 0 0 0 0 0 0 0 0 0 0 0 0 0 0
0 0 0 0 0 0 0 0 0 0 0 0 0 0 0 0 0 0 0 0 0 0 0 0 0 0 0 0 0 0 0 0 0 0 0 0 0 0 0 0 0 0 0 0
0 0 0 0 0 0 0 0 0 0 0 0 0 0 0 0 0 0 0 0 0 0 0 0 0 0 0 0 0 0 0 0 0 0 0 0 0 0 0 0 0 0 0 0
0 0 0 0 0 0 0 0 0 0 0 0 0 0 0 0 0 0 0 0 0 0 0 0 0 0 0 0 0 0 0 0 0 0 0 0 0 0 0 0 0 0 0 0
0 0 0 0 0 0 0 0 0 0 0 0 0 0 0 0 0 0 0 0 0 0 0 0 0 0 0 0 0 0 0 0 0 0 0 0 0 0 0 0 0 0 0 0
0 0 0 0 0 0 0 0 0 0 0 0 0 0 0 0 0 0 0 0 0 0 0 0 0 0 0 0 0 0 0 0 0 0 0 0 0 0 0 0 0 0 0 0
0 0 0 0 0 0 0 0 0 0 0 0 0 0 0 0 0 0 0 0 0 0 0 0 0 0 0 0 0 0 0 0 0 0 0 0 0 0 0 0 0 0 0 0
0 0 0 0 0 0 0 0 0 0 0 0 0 0 0 0 0 0 0 0 0 0 0 0 0 0 0 0 0 0 0 0 0 0 0 0 0 0 0 0 0 0 0 0
0 0 0 0 0 0 0 0 0 0 0 0 0 0 0 0 0 0 0 0 0 0 0 0 0 0 0 0 0 0 0 0 0 0 0 0 0 0 0 0 0 0 0 0
0 0 0 0 0 0 0 0 0 0 0 0 0 0 0 0 0 0 0 0 0 0 0 0 0 0 0 0 0 0 0 0 0 0 0 0 0 0 0 0 0 0 0 0
0 0 0 0 0 0 0 0 0 0 0 0 0 0 0 0 0 0 0 0 0 0 0 0 0 0 0 0 0 0 0 0 0 0 0 0 0 0 0 0 0 0 0 0
0 0 0 0 0 0 0 0 0 0 0 0 0 0 0 0 0 0 0 0 0 0 0 0 0 0 0 0 0 0 0 0 0 0 0 0 0 0 0 0 0 0 0 0
0 0 0 0 0 0 0 0 0 0 0 0 0 0 0 0 0 0 0 0 0 0 0 0 0 0 0 0 0 0 0 0 0 0 0 0 0 0 0 0 0 0 0 0
0 0 0 0 0 0 0 0 0 0 0 0 0 0 0 0 0 0 0 0 0 0 0 0 0 0 0 0 0 0 0 0 0 0 0 0 0 0 0 0 0 0 0 0
Height
5606 5612 5619 5627 5633 5640 5647 5654 5660 5665 5669 5673 5677 5681 5684 5687 5689 5691 5693 5694 5695 5695 5695 5694 5693 5692 5691 5689 5687 5684 5681 5677 5673 5669 5663 5657 5651 5643 5635 5626 5617 5607 5597 5587
5607 5613 5619 5626 5632 5639 5646 5652 5657 5662 5666 5669 5672 5676 5679 5681 5683 5685 5687 5688 5688 5688 5688 5687 5686 5685 5683 5681 5678 5675 5672 5668 5663 5658 5652 5646 5638 5630 5621 5612 5603 5593 5583 5573
5609 5614 5620 5626 5633 5638 5644 5649 5654 5658 5664 5664 5667 5670 5673 5676 5677 5679 5680 5681 5681 5681 5680 5679 5678 5677 5675 5673 5670 5666 5662 5658 5653 5647 5641 5633 5625 5617 5608 5599 5590 5580 5569 5558
5609 5615 5620 5628 5631 5635 5640 5645 5649 5653 5656 5658 5661 5665 5667 5669 5671 5672 5673 5673 5673 5673 5673 5672 5670 5669 5667 5664 5661 5657 5653 5648 5642 5636 5628 5621 5612 5604 5595 5586 5576 5566 5554 5541
5607 5613 5618 5624 5628 5632 5636 5641 5644 5647 5650 5652 5656 5659 5661 5663 5665 5665 5666 5666 5666 5666 5665 5664 5663 5661 5658 5655 5651 5647 5642 5637 5631 5624 5616 5608 5600 5591 5582 5573 5562 5551 5538 5524
5606 5611 5616 5621 5624 5627 5633 5636 5639 5641 5644 5648 5650 5652 5656 5656 5657 5658 5658 5659 5659 5658 5658 5656 5655 5652 5649 5646 5642 5637 5632 5626 5619 5612 5604 5596 5587 5578 5569 5559 5548 5535 5522 5506
5604 5608 5613 5618 5621 5624 5630 5633 5633 5636 5639 5642 5644 5647 5649 5649 5650 5651 5652 5652 5652 5651 5650 5648 5646 5643 5640 5636 5632 5627 5621 5614 5607 5600 5592 5584 5575 5566 5555 5545 5533 5520 5506 5490
5602 5607 5614 5615 5617 5621 5624 5626 5628 5631 5634 5636 5639 5640 5642 5643 5644 5645 5645 5645 5644 5643 5641 5639 5637 5634 5631 5627 5622 5616 5610 5603 5596 5588 5580 5571 5562 5551 5540 5528 5515 5501 5487 5471
5603 5608 5609 5611 5614 5617 5619 5622 5625 5627 5630 5632 5634 5635 5637 5638 5638 5638 5638 5637 5636 5635 5633 5631 5628 5625 5621 5616 5611 5605 5598 5591 5584 5576 5568 5558 5548 5537 5524 5511 5497 5482 5467 5451
5598 5603 5605 5608 5610 5613 5616 5619 5621 5623 5626 5627 5629 5630 5631 5631 5631 5631 5630 5629 5628 5626 5624 5622 5619 5615 5611 5606 5600 5594 5587 5580 5573 5565 5556 5545 5534 5521 5508 5493 5479 5463 5446 5431
5595 5599 5602 5604 5607 5610 5612 5615 5617 5619 5621 5622 5623 5624 5624 5624 5624 5623 5622 5621 5620 5618 5616 5613 5609 5605 5600 5595 5589 5583 5576 5569 5561 5553 5543 5532 5520 5506 5491 5476 5457 5442 5426 5410
5593 5596 5599 5602 5604 5607 5609 5611 5613 5615 5616 5617 5617 5617 5617 5617 5616 5616 5615 5613 5611 5609 5606 5603 5599 5594 5589 5584 5578 5572 5565 5557 5549 5540 5529 5518 5506 5493 5476 5459 5443 5425 5408 5393
5590 5593 5596 5599 5601 5603 5605 5607 5608 5610 5610 5611 5611 5611 5610 5610 5609 5608 5606 5605 5602 5600 5597 5593 5589 5584 5579 5573 5567 5561 5553 5545 5536 5526 5515 5503 5490 5477 5465 5450 5430 5411 5396 5381
5587 5590 5593 5595 5598 5600 5601 5602 5603 5604 5604 5604 5604 5604 5603 5602 5601 5600 5598 5596 5593 5590 5587 5583 5578 5573 5568 5562 5556 5549 5541 5532 5522 5511 5499 5486 5473 5458 5444 5430 5418 5403 5386 5371
5584 5587 5590 5592 5594 5595 5596 5597 5598 5598 5598 5598 5597 5596 5595 5594 5593 5591 5589 5587 5584 5580 5576 5572 5568 5563 5557 5551 5544 5536 5527 5518 5507 5495 5483 5469 5456 5441 5427 5412 5398 5385 5374 5361
5580 5583 5585 5587 5588 5589 5590 5591 5591 5591 5591 5590 5589 5588 5587 5586 5584 5582 5580 5577 5574 5570 5566 5562 5558 5552 5546 5540 5532 5523 5514 5503 5492 5480 5467 5454 5440 5425 5411 5397 5384 5371 5359 5347
5575 5577 5579 5581 5582 5583 5583 5584 5583 5583 5582 5581 5581 5580 5578 5576 5575 5572 5570 5567 5564 5560 5556 5552 5547 5541 5535 5527 5519 5510 5500 5489 5477 5464 5451 5438 5424 5409 5396 5383 5371 5360 5348 5335
5569 5571 5573 5574 5575 5575 5575 5575 5575 5574 5573 5573 5571 5570 5569 5567 5565 5563 5560 5557 5554 5550 5546 5541 5535 5529 5522 5514 5505 5496 5485 5474 5462 5449 5436 5422 5408 5394 5382 5371 5360 5349 5338 5327
5561 5563 5565 5565 5566 5566 5566 5566 5566 5565 5564 5563 5562 5561 5559 5558 5556 5553 5550 5547 5544 5539 5535 5529 5523 5516 5509 5500 5491 5481 5470 5458 5446 5433 5420 5406 5393 5381 5370 5360 5349 5338 5328 5319
5553 5555 5556 5557 5557 5557 5557 5557 5556 5556 5555 5554 5553 5551 5550 5548 5546 5544 5541 5537 5533 5529 5523 5517 5511 5504 5495 5486 5476 5466 5454 5443 5430 5417 5404 5392 5380 5369 5359 5348 5338 5329 5320 5313
5545 5546 5547 5547 5548 5548 5548 5548 5547 5546 5546 5545 5544 5542 5541 5539 5536 5533 5530 5526 5522 5517 5511 5505 5498 5490 5481 5471 5461 5450 5439 5427 5414 5402 5389 5378 5368 5358 5348 5338 5329 5320 5313 5308
5536 5537 5538 5538 5539 5539 5539 5538 5538 5537 5537 5536 5534 5533 5531 5529 5526 5523 5520 5516 5510 5505 5499 5492 5484 5476 5466 5456 5446 5434 5423 5411 5398 5387 5376 5366 5356 5347 5338 5329 5321 5314 5308 5304
5528 5528 5529 5530 5530 5530 5530 5530 5529 5529 5528 5527 5525 5524 5521 5519 5516 5513 5509 5504 5498 5492 5485 5478 5470 5461 5451 5441 5430 5419 5407 5395 5384 5373 5363 5354 5345 5336 5328 5320 5314 5308 5304 5301
5519 5520 5520 5521 5521 5521 5521 5521 5520 5520 5519 5517 5516 5514 5511 5508 5505 5501 5496 5491 5485 5478 5471 5463 5454 5445 5435 5425 5414 5403 5391 5380 5370 5361 5352 5343 5334 5326 5319 5313 5308 5304 5301 5300
5511 5511 5512 5512 5513 5512 5512 5512 5511 5510 5509 5507 5505 5503 5500 5497 5493 5489 5484 5478 5471 5464 5456 5447 5439 5429 5420 5409 5398 5387 5376 5366 5357 5349 5341 5332 5325 5318 5312 5307 5303 5301 5300 5300
5502 5503 5503 5504 5504 5504 5503 5503 5502 5501 5499 5497 5495 5492 5489 5485 5481 5476 5470 5464 5457 5449 5440 5432 5423 5414 5404 5393 5382 5372 5362 5354 5345 5337 5329 5322 5315 5309 5304 5301 5299 5298 5299 5300
5494 5494 5495 5495 5495 5495 5494 5493 5492 5491 5489 5487 5484 5481 5477 5473 5468 5462 5456 5449 5442 5433 5425 5416 5407 5398 5387 5377 5367 5358 5350 5342 5334 5326 5319 5312 5306 5301 5298 5296 5296 5297 5299 5302
Wind_Speed
24 27 27 26 25 25 25 25 24 24 25 24 24 24 25 25 25 26 27 28 29 31 32 33 34 34 35 36 37 39 41 42 44 46 48 52 56 60 64 66 68 68 68 70
25 25 25 25 24 24 24 23 23 24 24 25 26 25 25 25 26 27 28 29 30 31 32 33 34 35 36 37 39 41 42 43 45 48 51 56 60 63 65 66 66 66 68 72
24 25 25 24 23 23 22 23 23 23 22 26 27 27 27 27 28 28 29 30 31 32 33 34 35 36 37 39 40 42 43 45 47 51 55 59 62 64 64 64 65 68 72 77
24 24 24 22 23 23 24 25 26 26 27 29 29 28 29 29 29 30 30 31 32 33 33 34 35 36 38 40 41 42 44 47 50 54 58 61 62 62 62 64 67 72 77 82
24 23 21 21 22 23 24 24 26 28 29 30 29 29 30 30 30 31 31 32 33 33 33 34 35 37 39 40 41 43 46 50 54 57 60 61 60 61 63 66 71 76 81 86
24 23 22 21 21 21 22 22 24 26 28 28 28 30 28 29 30 31 31 31 31 32 33 35 37 38 38 39 42 45 49 53 56 58 59 58 59 62 66 70 75 80 85 90
24 23 20 19 20 20 19 18 21 23 24 25 27 27 26 28 29 29 29 30 31 32 34 36 36 37 38 41 44 48 52 55 57 56 57 58 61 65 70 75 80 84 89 94
22 19 16 18 19 19 18 19 20 21 21 22 24 25 25 25 26 27 28 30 31 33 34 35 36 37 40 43 47 51 54 55 55 55 57 60 64 69 75 79 84 88 92 96
19 16 17 19 18 18 18 18 19 19 20 21 21 22 23 24 26 27 29 30 31 32 33 34 36 39 42 46 50 52 53 53 53 55 59 64 69 74 79 84 88 92 96 97
19 18 18 18 19 18 18 18 18 18 19 20 21 23 24 25 26 27 28 29 30 31 33 36 38 42 45 48 51 51 51 52 54 57 62 67 73 78 83 87 91 95 97 95
18 19 20 19 18 17 17 17 17 17 18 19 20 21 23 24 25 27 28 29 31 33 35 38 41 44 47 49 49 49 50 53 57 61 66 71 76 81 86 90 94 96 95 91
17 18 18 16 14 14 14 14 14 15 16 18 20 21 23 24 26 28 29 31 33 35 37 40 43 46 47 47 48 49 52 56 60 65 70 75 79 83 88 92 94 94 89 84
16 16 15 14 13 13 13 14 15 16 18 20 22 24 25 27 28 29 31 32 34 37 40 43 45 45 46 46 48 51 55 59 64 69 74 79 83 86 89 91 92 88 82 77
16 15 15 14 14 14 15 16 18 20 22 24 25 27 28 29 30 31 33 34 37 39 42 43 44 44 45 47 50 54 58 63 68 73 78 82 86 89 91 92 88 80 74 73
16 16 16 16 17 18 19 21 23 25 27 28 29 30 30 31 32 34 35 37 39 41 42 42 43 44 46 49 53 57 62 67 72 77 81 85 88 90 91 89 83 75 70 70
19 19 19 20 22 23 25 27 28 30 31 31 32 32 32 33 34 35 37 38 39 40 41 42 43 45 48 52 56 61 66 71 76 80 83 86 88 89 88 82 75 71 70 68
24 24 24 25 27 28 30 31 32 33 33 33 33 33 34 35 35 36 38 39 40 41 42 43 45 48 52 56 61 65 70 75 79 82 85 87 88 87 82 74 70 68 67 63
28 28 29 30 31 31 32 33 33 34 34 34 34 35 35 35 36 37 38 39 40 41 42 45 48 52 56 60 65 69 74 78 81 83 86 87 85 81 74 69 68 66 61 55
30 31 31 32 32 33 33 33 34 34 34 35 35 35 35 36 37 38 39 40 41 42 45 48 52 56 60 64 68 73 76 79 82 84 86 84 80 73 68 67 65 61 55 48
31 32 32 32 33 33 33 34 34 35 35 35 35 35 36 36 37 38 39 40 42 45 48 52 56 60 64 68 72 75 78 80 83 85 83 78 72 67 66 64 60 54 48 40
30 31 32 32 32 33 34 34 34 34 34 34 35 35 36 37 38 39 40 42 45 48 52 55 59 63 68 71 74 77 79 82 84 82 77 71 66 65 63 59 54 47 39 31
29 30 31 31 32 32 32 33 33 33 34 35 35 36 37 38 39 40 42 45 48 52 55 59 63 67 71 73 75 77 80 83 81 76 69 65 64 62 57 52 46 38 30 23
28 29 29 30 30 31 31 32 33 33 34 35 36 36 37 38 40 42 45 49 52 56 60 63 67 70 72 74 76 79 81 79 74 68 64 63 61 56 50 44 38 30 22 14
27 28 29 29 30 31 32 32 33 34 34 35 36 37 38 40 43 46 49 52 56 60 63 67 70 71 73 75 78 80 78 73 67 63 62 60 55 49 43 37 30 22 13 6
28 28 29 29 30 31 32 32 33 34 35 36 37 39 41 43 46 50 53 57 60 63 67 69 70 72 74 78 79 76 71 65 62 61 58 53 48 43 37 30 22 13 5 3
28 28 29 30 30 31 32 33 34 35 36 38 40 42 44 47 50 54 57 60 63 66 68 69 71 74 77 77 74 69 64 61 60 57 53 48 43 38 31 22 12 4 4 11
27 28 29 30 31 32 33 34 35 37 39 41 43 45 48 51 55 58 60 63 65 66 68 70 73 76 75 72 66 62 60 59 56 52 48 44 38 31 22 12 3 6 13 17
Wind_Direction
193 197 197 199 201 203 202 204 210 217 226 230 232 235 240 246 251 256 261 265 269 273 277 279 281 283 285 287 290 292 294 296 298 299 301 303 306 308 310 312 313 314 314 315
197 202 202 203 204 205 207 212 218 223 229 235 237 239 244 250 256 261 265 269 273 276 279 281 282 284 286 288 291 293 296 297 299 301 304 306 308 311 312 314 314 315 315 316
199 204 207 208 210 215 219 223 228 229 234 241 242 243 246 253 260 265 269 273 275 278 279 281 282 284 287 290 292 295 296 298 301 303 306 309 311 313 314 314 315 315 316 317
207 210 215 216 219 223 226 227 230 230 234 241 245 248 252 257 263 268 272 274 276 278 279 280 282 285 288 291 293 295 298 300 303 306 309 311 312 313 314 314 315 317 317 318
214 219 222 225 225 226 228 229 232 234 238 243 248 251 255 260 264 268 270 273 275 277 279 281 284 287 290 292 294 296 299 302 305 308 311 312 312 313 314 315 316 317 318 319
221 223 223 225 227 230 230 232 234 237 240 244 249 253 257 260 262 265 268 272 274 277 280 283 286 289 291 293 295 299 302 305 308 310 311 312 313 314 315 317 317 318 319 320
219 221 222 225 228 231 232 229 234 237 239 241 247 253 255 258 262 265 268 272 276 279 282 285 287 289 291 294 298 301 305 307 309 310 311 312 313 315 316 317 318 319 320 321
218 218 219 223 226 228 228 226 231 235 239 242 246 251 255 259 263 268 272 276 279 281 283 285 288 291 294 297 301 304 306 308 309 310 311 313 314 316 317 318 319 320 321 322
222 221 218 220 223 227 229 231 234 239 244 249 252 257 263 267 270 273 276 278 281 282 284 287 290 293 296 300 303 305 307 308 309 310 312 314 315 317 318 319 320 321 322 323
219 214 215 221 227 232 235 237 241 245 250 255 260 265 269 272 274 276 278 280 282 284 286 289 292 296 299 302 305 306 307 308 309 311 313 315 317 318 320 320 321 323 323 324
217 217 221 225 232 235 237 240 244 251 260 265 268 271 274 276 278 280 281 282 283 285 288 292 296 299 302 304 305 306 307 309 311 313 315 317 318 320 321 322 323 324 324 324
215 216 220 224 226 231 238 245 253 261 267 272 275 279 281 282 283 283 283 284 286 289 293 296 299 301 303 304 306 307 308 310 312 314 316 318 319 320 322 323 324 325 325 325
210 211 214 220 228 235 244 254 264 273 279 282 284 285 285 285 284 284 285 287 290 293 295 298 300 302 303 305 306 307 309 311 314 316 317 319 320 321 322 323 324 325 325 325
207 211 218 227 237 249 260 270 277 283 286 287 288 288 287 286 286 287 288 290 293 295 297 299 301 302 303 305 307 309 311 314 316 317 318 319 320 321 322 324 325 325 325 325
217 225 234 243 254 264 272 278 283 286 288 288 288 288 287 287 288 289 290 292 294 296 298 300 301 302 304 306 309 311 313 316 317 318 319 320 321 322 323 324 325 326 326 327
233 241 249 258 265 272 277 281 285 286 287 287 286 287 287 288 289 289 291 293 295 297 298 299 301 303 305 308 311 313 315 317 318 319 320 321 322 323 324 325 326 326 327 328
246 252 259 265 271 275 278 281 283 285 285 285 285 286 287 287 288 289 291 293 295 296 298 300 302 305 308 311 313 315 317 318 319 320 320 321 322 323 324 325 326 327 328 328
255 260 265 269 273 275 278 280 282 282 283 283 284 285 285 286 287 290 291 293 295 297 299 301 305 308 310 313 315 316 317 318 319 320 321 322 323 324 325 326 327 328 328 329
259 263 266 270 272 275 277 278 279 279 280 281 282 283 284 285 288 290 292 294 296 298 301 304 307 310 312 314 315 317 318 319 319 320 321 322 323 324 325 326 327 328 329 329
261 264 266 268 271 272 274 275 276 278 279 280 281 283 285 287 289 291 293 295 298 301 304 307 310 312 313 315 316 317 318 319 320 321 322 323 324 325 326 326 327 328 328 329
260 262 264 266 268 270 272 274 275 277 278 280 282 284 286 288 290 293 295 298 301 304 307 309 311 313 314 315 316 317 318 319 320 321 322 323 324 325 326 326 327 328 329 330
260 262 265 266 268 270 272 273 275 276 278 281 283 285 287 290 293 295 298 301 304 307 309 311 312 313 315 316 317 318 318 319 320 321 322 323 324 325 326 327 327 328 330 332
262 263 265 267 269 271 272 274 276 278 280 282 284 287 290 293 296 299 302 304 306 308 310 312 313 314 315 316 317 318 319 320 320 321 322 323 324 325 326 327 328 329 331 335
263 265 267 268 270 272 274 276 278 280 282 284 287 290 294 297 300 302 304 306 308 310 311 312 313 314 315 316 317 318 319 320 321 322 323 324 325 326 326 327 328 329 333 344
264 265 267 269 271 273 275 277 280 282 285 288 292 295 297 300 302 304 306 307 309 310 311 313 314 315 316 317 317 318 319 320 321 322 323 324 325 325 326 326 326 328 336 124
265 267 269 271 273 275 277 280 283 286 290 292 295 297 300 302 303 305 307 308 310 311 312 313 314 315 316 317 318 318 319 320 321 322 323 324 324 324 324 323 322 320 146 144
266 268 270 273 275 278 281 284 286 289 292 294 297 299 301 303 304 306 307 309 310 311 312 313 314 315 316 317 318 318 319 320 321 322 322 323 323 323 322 319 298 154 148 145